Other Public Products
Issued by NWS Grand Forks, ND

Home | Current Version | Previous Version | Text Only | Print | Product List | Glossary Off
Versions: 1 2 3 4 5 6 7 8 9 10 11 12 13 14 15 16 17 18 19 20 21 22 23 24 25 26 27 28 29 30 31 32 33 34 35 36 37 38 39 40 41 42 43 44 45 46 47 48 49 50

000
FPUS83 KFGF 272210
OPUFGF
PRAIRIE TO PINES WEATHER ROUNDUP
NATIONAL WEATHER SERVICE EASTERN NORTH DAKOTA/GRAND FORKS ND
500 PM CDT WED AUG 27 2014

 **SATELLITE DATA USED TO AUGMENT SKY COVER AT AUTOMATED STATIONS**
 *****  WEATHER ACROSS EASTERN NORTH DAKOTA  *****

CITY           SKY/WX    TMP DP  RH WIND       PRES   REMARKS
GRAND FORKS    MOSUNNY   74  55  51 SW6       30.10F
GRAND FORKS AF SUNNY     74  58  58 SW8       30.11F
GRAND CITY NWS   N/A     73 N/A N/A S7          N/A
BUXTON         NOT AVBL
DEVILS LAKE    SUNNY     73  55  53 S9        30.07F
FARGO          PTSUNNY   74  58  57 SE8       30.11F
WAHPETON ARPT  MOCLDY    73  55  53 S5        30.12F
$$

 *****  WEATHER ACROSS CENTRAL AND WESTERN NORTH DAKOTA  *****

CITY           SKY/WX    TMP DP  RH WIND       PRES   REMARKS
JAMESTOWN      MOSUNNY   73  59  61 S9        30.09F
BISMARCK       SUNNY     78  59  51 S10       30.06F
MINOT          SUNNY     77  53  43 S10       30.02F
MINOT AFB      SUNNY     77  56  48 S9        30.02F
GARRISON         N/A     77  59  53 S12       30.04F
WILLISTON      SUNNY     83  53  35 SE8       29.98F
DICKINSON      MOSUNNY   77  54  44 S8        30.03F
HETTINGER      MOSUNNY   75  55  49 SE9       30.07F
$$

 *****  OTHER OBSERVATIONS NORTHEAST NORTH DAKOTA  *****

CITY           SKY/WX    TMP DP  RH WIND       PRES   REMARKS
WALHALLA         N/A     73  52  46 S10       30.08F
LANGDON        FAIR      73  54  49 S12G20    30.09F
CAVALIER       FAIR      73  54  49 S15       30.08F
GRAFTON        FAIR      73  50  43 SW12      30.09F
CANDO          FAIR      73  57  56 S12       30.07F
FORT TOTTEN      N/A     74  56  52 S8        29.95S
ROLLA          FAIR      72  54  53 S9G16     30.08F
RUGBY          FAIR      73  57  56 S10       30.05F
 ***** THE ABOVE OBSERVATIONS ARE NON NWS ARE NOT QUALITY
        CONTROLLED AND MAY MIS-REPORT RAIN FOR SNOW...
$$

 *****  OTHER OBSERVATIONS SOUTHEAST NORTH DAKOTA *****

CITY           SKY/WX    TMP DP  RH WIND       PRES   REMARKS
COOPERSTOWN    NOT AVBL
VALLEY CITY    MOCLDY    73  61  64 S7G17     30.11F
OAKES            N/A     75  61  60 SE7       30.09F
GWINNER        PTCLDY    75  61  60 SE9       30.11F
SHEYENNE NWR     N/A     74  60  61 SE7       29.95S
BUFFALO        NOT AVBL
WYNDMERE       NOT AVBL
 ***** THE ABOVE OBSERVATIONS ARE NON NWS ARE NOT QUALITY
       CONTROLLED AND MAY MIS-REPORT RAIN FOR SNOW...
$$

  *****  WEATHER ACROSS NORTHERN MINNESOTA  *****

CITY           SKY/WX    TMP DP  RH WIND       PRES   REMARKS
FLAG ISLAND    SUNNY     66  50  55 S8        30.12F
WARROAD        SUNNY     70  52  52 E7        30.13F
ROSEAU         SUNNY     73  52  46 S5        30.12F
HALLOCK        SUNNY     73  50  43 S12       30.09F
THF RVR FALLS  SUNNY     72  52  49 CALM      30.12F
HALSTAD          N/A     73  54  50 S6          N/A
FOSSTON        MOSUNNY   73  52  46 SW3       30.14F
BAUDETTE       NOT AVBL
WASKISH        SUNNY     70  54  56 CALM      30.14F
CROOKSTON      SUNNY     73  54  49 SW5       30.12F
$$
  *****  WEATHER ACROSS CENTRAL AND WEST MINNESOTA  *****

CITY           SKY/WX    TMP DP  RH WIND       PRES   REMARKS
BEMIDJI        MOSUNNY   70  51  50 S3        30.14F
PARK RAPIDS    MOSUNNY   68  57  68 S7        30.16S
WADENA         CLOUDY    68  57  68 CALM      30.15F
DETROIT LAKES  MOSUNNY   70  57  64 S8        30.16F
MOORHEAD       MOSUNNY   73  61  64 S7        30.13F
FERGUS FALLS   SUNNY     73  54  49 S5        30.13F
ELBOW LAKE     FAIR      72  58  62 SE3       30.13F
MORRIS MN      MOSUNNY   75  57  53 SE9       30.12F
STAPLES        CLOUDY    66  55  68 CALM      30.16F
WHEATON        MOSUNNY   72  59  64 SE7       30.13F
$$
  *****  WEATHER ELSEWHERE ACROSS MINNESOTA  *****

CITY           SKY/WX    TMP DP  RH WIND       PRES   REMARKS
DULUTH         MOSUNNY   70  48  45 NW5       30.16F
INTRNTL FALLS  PTSUNNY   71  51  49 W7        30.13F
ELY            MOSUNNY   66  48  52 W7        30.15F
CLOQUET        SUNNY     70  48  46 W5        30.16F
BRAINERD       CLOUDY    66  57  72 S6        30.17F
HIBBING        SUNNY     71  48  43 W7        30.16F
ALEXANDRIA     PTSUNNY   72  57  59 VRB5      30.16F
SAINT CLOUD    MOSUNNY   76  56  49 VRB5      30.14F
MINNEAPOLIS    PTSUNNY   77  53  43 SE7       30.14F
$$

  *****  WEATHER ACROSS SOUTH DAKOTA  *****

CITY           SKY/WX    TMP DP  RH WIND       PRES   REMARKS
SIOUX FALLS    PTSUNNY   72  64  76 S13       30.11F
BROOKINGS      NOT AVBL
WATERTOWN      CLOUDY    73  59  61 VRB7      30.10F
HURON          CLOUDY    76  64  66 S8        30.06F
SISSETON         N/A     75  60  59 S9        30.09F
ABERDEEN       CLOUDY    69  60  73 SE6       30.08F
MITCHELL       CLOUDY    75  66  73 S15       30.08F
PIERRE         CLOUDY    76  66  71 SE12      30.02F
MOBRIDGE       CLOUDY    70  62  76 E6        30.05F
RAPID CITY     CLOUDY    73  61  65 S3        30.07F
$$

  *****  SOME WEATHER IN NEARBY STATES *****

CITY           SKY/WX    TMP DP  RH WIND       PRES   REMARKS
GLASGOW MT     SUNNY     85  47  26 SW10      29.92F
GREAT FALLS MT SUNNY     84  42  22 VRB3      30.02S
CHEYENNE WY    MOSUNNY   69  50  50 N8        30.15F
SCOTTSBLUFF NE LGT RAIN  65  64  97 W6        30.08F
OMAHA NE       CLOUDY    74  69  85 NE9       30.06S
DES MOINES IA  CLOUDY    76  67  73 E7        30.08F
DAVENPORT IA   CLOUDY    74  62  66 NE9       30.10F
CHICAGO IL     CLOUDY    75  61  61 NE12      30.13S
EAU CLAIRE WI  MOSUNNY   74  55  51 NE6       30.15F
LA CROSSE WI   PTSUNNY   76  57  51 W3        30.13F
$$

  *****  SOME NATIONAL WEATHER *****

CITY           SKY/WX    TMP DP  RH WIND       PRES   REMARKS
LA GUARDIA NY  MOSUNNY   86  65  49 S10       29.87F
RALEIGH NC     SUNNY     85  58  39 N7        29.99S
ATLANTA GA     MOSUNNY   87  58  37 N9        30.04F
NEW ORLEANS LA CLOUDY    86  74  67 E8        29.98S HX  94
OKLAHOMA CITY  MOSUNNY   95  65  37 E12       30.00F HX  97
ALBUQUERQUE NM MOSUNNY   76  50  40 N9        30.24F
SALT LAKE CITY PTSUNNY   75  49  39 N9        30.19F
LOS ANGELES CA MOSUNNY   80  60  50 W14       30.01F
BOISE ID       SUNNY     87  39  18 NW10      30.08F
SEATTLE WA     MOSUNNY   82  55  39 W7        30.04S
$$

*** WEATHER ACROSS MANITOBA...SASKATCHEWAN AND ONTARIO ***
                ***ONTARIO***

CITY           SKY/WX    TMP DP  RH WIND       PRES   REMARKS
GERALDTON      CLOUDY    59  46  63 NW6       30.13R
THUNDER BAY    PTSUNNY   64  48  55 NW7       30.15S
SIOUX LOOKOUT  MOSUNNY   66  45  45 W5        30.13F
TORONTO        PTSUNNY   73  54  49 NW14      30.03S
BIG TROUT LK   NOT AVBL
PICKLE LAKE    MOSUNNY   66  43  42 W7        30.09F
DRYDEN         MOSUNNY   68  46  45 SW6       30.14S
KENORA         MOSUNNY   68  50  52 SW9       30.13F
$$
                *** MANITOBA***

CITY           SKY/WX    TMP DP  RH WIND       PRES   REMARKS
BRANDON        SUNNY     73  54  49 SW15      30.03F
DAUPHIN        SUNNY     77  57  50 SW13G22   29.96F
ISLAND LAKE    PTSUNNY   68  55  64 S6        29.91F
PILOT MOUND      N/A     72  52  49 SW12G17     N/A
THE PAS        MOSUNNY   84  52  32 W12G18    29.76F
THOMPSON       PTSUNNY   75  59  57 S12G17    29.73S
WINNIPEG       MOSUNNY   75  48  38 S17       30.07F
LYNN LAKE      PTSUNNY   75  57  53 MISG      29.65F
CHURCHILL      PTSUNNY   64  52  63 S13G21    29.68F
GILLAM         PTSUNNY   73  54  49 S13       29.75F
$$
                ***SASKATCHEWAN***

CITY           SKY/WX    TMP DP  RH WIND       PRES   REMARKS
ESTEVAN        MOSUNNY   79  54  41 S12       29.98F
KINDERSLEY     MOSUNNY   84  50  30 W17G25    29.84R
LLOYDMINSTER   MOSUNNY   75  54  46 CALM      29.86S
PRINCE ALBERT  LGT RAIN  73  59  60 N13G20    29.84R
REGINA         MOSUNNY   82  57  42 SW9       29.90F


USA.gov is the U.S. government's official web portal to all federal, state and local government web resources and services.